TimeCST,TemperatureF,Dew PointF,Humidity,Sea Level PressureIn,VisibilityMPH,Wind Direction,Wind SpeedMPH,Gust SpeedMPH,PrecipitationIn,Events,Conditions,WindDirDegrees,DateUTC
12:54 AM,35.1,28.0,76,30.00,10.0,SSE,4.6,-,N/A,,Clear,150,2012-11-08 06:54:00
1:54 AM,36.0,28.9,76,29.99,10.0,SSE,6.9,-,N/A,,Clear,160,2012-11-08 07:54:00
2:54 AM,35.1,28.0,76,29.98,10.0,SE,8.1,-,N/A,,Clear,140,2012-11-08 08:54:00
3:54 AM,36.0,28.9,76,29.96,10.0,SE,9.2,-,N/A,,Clear,140,2012-11-08 09:54:00
4:54 AM,33.1,28.0,82,29.96,10.0,SE,3.5,-,N/A,,Clear,140,2012-11-08 10:54:00
5:54 AM,32.0,27.0,82,29.95,10.0,SSE,6.9,-,N/A,,Clear,160,2012-11-08 11:54:00
6:54 AM,34.0,28.0,79,29.94,10.0,SSE,4.6,-,N/A,,Clear,160,2012-11-08 12:54:00
7:54 AM,37.9,30.9,76,29.95,9.0,SSE,4.6,-,N/A,,Clear,160,2012-11-08 13:54:00
8:54 AM,46.0,34.0,63,29.95,10.0,South,17.3,-,N/A,,Clear,170,2012-11-08 14:54:00
9:54 AM,52.0,34.0,50,29.95,-9999.0,South,13.8,-,N/A,,Clear,170,2012-11-08 15:54:00
10:54 AM,57.9,33.1,39,29.92,10.0,SSW,24.2,28.8,N/A,,Clear,200,2012-11-08 16:54:00
11:54 AM,60.1,34.0,38,29.89,10.0,South,18.4,-,N/A,,Clear,180,2012-11-08 17:54:00
12:54 PM,62.1,34.0,35,29.87,10.0,SSW,11.5,-,N/A,,Clear,210,2012-11-08 18:54:00
1:54 PM,64.9,34.0,32,29.85,10.0,South,11.5,-,N/A,,Clear,180,2012-11-08 19:54:00
2:54 PM,66.0,34.0,30,29.85,10.0,South,9.2,-,N/A,,Clear,190,2012-11-08 20:54:00
3:54 PM,66.0,34.0,30,29.85,10.0,South,4.6,-,N/A,,Clear,180,2012-11-08 21:54:00
4:54 PM,62.1,34.0,35,29.87,10.0,SE,3.5,-,N/A,,Clear,130,2012-11-08 22:54:00
5:54 PM,53.1,32.0,45,29.89,8.0,East,4.6,-,N/A,,Clear,100,2012-11-08 23:54:00
6:54 PM,48.9,33.1,54,29.89,10.0,ENE,5.8,-,N/A,,Clear,70,2012-11-09 00:54:00
7:54 PM,44.1,30.9,60,29.90,10.0,NW,4.6,-,N/A,,Clear,320,2012-11-09 01:54:00
8:54 PM,41.0,30.0,65,29.89,9.0,NNW,5.8,-,N/A,,Clear,330,2012-11-09 02:54:00
9:54 PM,39.9,30.0,68,29.89,8.0,NNW,8.1,-,N/A,,Clear,340,2012-11-09 03:54:00
10:54 PM,39.9,30.9,70,29.88,8.0,North,6.9,-,N/A,,Clear,360,2012-11-09 04:54:00
11:54 PM,39.9,32.0,73,29.88,9.0,North,9.2,-,N/A,,Clear,360,2012-11-09 05:54:00